Location: San Pelegr�n
(42.1868°N, 0.0079°E)
Time: 04:21:08
(UTC+00:00)

Cosmos 1953 Rocket - Pass Details

Date: 24 January 2020
Orbit: 603 x 636 km, 82.5° (Epoch: 19 February)

Event Time Altitude Azimuth Distance (km) Brightness Sun altitude
Rises 18:06:13 0° 181° (S) 2,916 7.2 -11.7°
Reaches altitude 10° 18:08:27 10° 179° (S) 2,014 6.4 -12.1°
Maximum altitude 18:12:54 72° 96° (E) 673 3.5 -12.9°
Drops below altitude 10° 18:17:23 10° 12° (NNE) 2,029 5.9 -13.7°
Sets 18:19:38 0° 11° (N) 2,940 6.8 -14.1°
